AZU4409 SBPJ-SBCF

Flight info

Callsign AZU4409
Flight time N/A
Altitude 37000
Route ISINA DCT GEVMI
Aircraft A320/M-SDE3FGHIRWY/LB1

Departure

Time N/A
Airport Brigadeiro Lysias Rodrigues Airport (SBPJ)

Arrival

Time 2026-05-06 00:28
Airport Tancredo Neves International Airport (SBCF)
Time Latitude Longitude Altitude Speed Heading
2026-05-06 00:12 -18.80788 -44.80788 20194 ft 385 kts 158°
2026-05-06 00:12 -18.83891 -44.79396 20190 ft 386 kts 158°
2026-05-06 00:12 -18.86361 -44.78290 20190 ft 386 kts 158°
2026-05-06 00:13 -18.88834 -44.77183 20190 ft 386 kts 158°
2026-05-06 00:13 -18.91303 -44.76080 20193 ft 386 kts 158°
2026-05-06 00:13 -18.93775 -44.74979 20193 ft 386 kts 158°
2026-05-06 00:13 -18.96250 -44.73875 20143 ft 386 kts 158°
2026-05-06 00:14 -18.98721 -44.72770 19849 ft 385 kts 158°
2026-05-06 00:14 -19.01146 -44.71686 19407 ft 382 kts 158°
2026-05-06 00:14 -19.03614 -44.70582 18935 ft 379 kts 158°
2026-05-06 00:14 -19.05999 -44.69500 18470 ft 376 kts 155°
2026-05-06 00:15 -19.08186 -44.68009 17970 ft 375 kts 140°
2026-05-06 00:15 -19.09963 -44.65953 17477 ft 374 kts 128°
2026-05-06 00:15 -19.11516 -44.63803 17032 ft 372 kts 128°
2026-05-06 00:15 -19.13080 -44.61627 16578 ft 371 kts 128°
2026-05-06 00:16 -19.14632 -44.59461 16128 ft 369 kts 128°
2026-05-06 00:16 -19.16179 -44.57305 15678 ft 367 kts 128°
2026-05-06 00:16 -19.17722 -44.55158 15242 ft 365 kts 128°
2026-05-06 00:16 -19.19254 -44.53028 14800 ft 363 kts 127°
2026-05-06 00:17 -19.20778 -44.50906 14361 ft 361 kts 127°
2026-05-06 00:17 -19.22294 -44.48794 13910 ft 359 kts 127°
2026-05-06 00:17 -19.23800 -44.46695 13436 ft 357 kts 127°
2026-05-06 00:17 -19.25294 -44.44614 13006 ft 354 kts 127°
2026-05-06 00:18 -19.26776 -44.42550 12608 ft 349 kts 127°
2026-05-06 00:18 -19.28204 -44.40560 12398 ft 329 kts 127°
2026-05-06 00:18 -19.29568 -44.38659 11789 ft 320 kts 127°
2026-05-06 00:18 -19.30895 -44.36809 11307 ft 309 kts 127°
2026-05-06 00:19 -19.32070 -44.34973 10925 ft 295 kts 116°
2026-05-06 00:19 -19.32813 -44.33007 10544 ft 282 kts 108°
2026-05-06 00:19 -19.33440 -44.31073 10255 ft 278 kts 108°
2026-05-06 00:19 -19.33865 -44.29769 9991 ft 286 kts 109°
2026-05-06 00:20 -19.34510 -44.27794 9504 ft 279 kts 109°
2026-05-06 00:20 -19.35141 -44.25872 9106 ft 267 kts 109°
2026-05-06 00:20 -19.35754 -44.24015 8628 ft 276 kts 109°
2026-05-06 00:20 -19.36479 -44.22129 8150 ft 277 kts 119°
2026-05-06 00:21 -19.37627 -44.20471 7572 ft 277 kts 134°
2026-05-06 00:21 -19.39057 -44.19179 7290 ft 260 kts 140°
2026-05-06 00:21 -19.40388 -44.18011 7184 ft 238 kts 139°
2026-05-06 00:21 -19.41626 -44.16909 7083 ft 227 kts 139°
2026-05-06 00:22 -19.42821 -44.15840 6977 ft 223 kts 139°
2026-05-06 00:22 -19.43985 -44.14795 6845 ft 220 kts 138°
2026-05-06 00:22 -19.45157 -44.13699 6331 ft 231 kts 137°
2026-05-06 00:22 -19.46372 -44.12566 5811 ft 232 kts 137°
2026-05-06 00:23 -19.47548 -44.11481 5700 ft 214 kts 137°
2026-05-06 00:23 -19.48624 -44.10490 5653 ft 198 kts 137°
2026-05-06 00:23 -19.49616 -44.09575 5624 ft 181 kts 137°
2026-05-06 00:23 -19.50532 -44.08730 5549 ft 168 kts 137°
2026-05-06 00:24 -19.51395 -44.07935 5408 ft 161 kts 137°
2026-05-06 00:24 -19.52229 -44.07165 5227 ft 157 kts 136°
2026-05-06 00:24 -19.53043 -44.06414 5052 ft 153 kts 136°
2026-05-06 00:24 -19.53845 -44.05674 4919 ft 151 kts 136°
2026-05-06 00:25 -19.54636 -44.04944 4727 ft 150 kts 136°
2026-05-06 00:25 -19.55412 -44.04228 4556 ft 146 kts 136°
2026-05-06 00:25 -19.56174 -44.03524 4353 ft 145 kts 136°
2026-05-06 00:25 -19.56931 -44.02826 4164 ft 143 kts 136°
2026-05-06 00:26 -19.57680 -44.02134 3981 ft 143 kts 136°
2026-05-06 00:26 -19.58430 -44.01442 3808 ft 143 kts 136°
2026-05-06 00:26 -19.59182 -44.00748 3621 ft 143 kts 136°
2026-05-06 00:26 -19.59936 -44.00051 3446 ft 144 kts 137°
2026-05-06 00:27 -19.60696 -43.99349 3262 ft 146 kts 138°
2026-05-06 00:27 -19.61462 -43.98635 3078 ft 147 kts 138°
2026-05-06 00:27 -19.62230 -43.97929 2885 ft 146 kts 138°
2026-05-06 00:27 -19.62962 -43.97251 2811 ft 125 kts 140°
2026-05-06 00:28 -19.63488 -43.96767 2808 ft 70 kts 139°
2026-05-06 00:28 -19.63815 -43.96465 2811 ft 57 kts 139°
2026-05-06 00:28 -19.64089 -43.96211 2810 ft 49 kts 139°
2026-05-06 00:28 -19.64319 -43.95998 2808 ft 32 kts 139°
2026-05-06 00:29 -19.64342 -43.95892 2808 ft 16 kts 52°
2026-05-06 00:29 -19.64300 -43.95842 2809 ft 5 kts 47°
2026-05-06 00:29 -19.64278 -43.95826 2809 ft 3 kts 21°
2026-05-06 00:29 -19.64260 -43.95827 2809 ft 4 kts 348°
2026-05-06 00:30 -19.64238 -43.95846 2807 ft 7 kts 318°
2026-05-06 00:30 -19.64174 -43.95906 2807 ft 8 kts 319°
2026-05-06 00:30 -19.64134 -43.95943 2807 ft 7 kts 319°
2026-05-06 00:30 -19.64100 -43.95975 2807 ft 6 kts 319°
2026-05-06 00:31 -19.64071 -43.96002 2809 ft 5 kts 319°
2026-05-06 00:31 -19.64046 -43.96024 2809 ft 5 kts 319°
2026-05-06 00:31 -19.63996 -43.96070 2810 ft 13 kts 319°
2026-05-06 00:31 -19.63933 -43.96128 2810 ft 11 kts 318°
2026-05-06 00:32 -19.63864 -43.96192 2810 ft 16 kts 319°
2026-05-06 00:32 -19.63768 -43.96279 2810 ft 19 kts 312°
2026-05-06 00:32 -19.63675 -43.96367 2810 ft 15 kts 326°
2026-05-06 00:32 -19.63587 -43.96344 2810 ft 14 kts 29°
2026-05-06 00:33 -19.63500 -43.96296 2810 ft 14 kts 28°
2026-05-06 00:33 -19.63428 -43.96313 2812 ft 12 kts 298°
2026-05-06 00:33 -19.63392 -43.96389 2810 ft 11 kts 297°
2026-05-06 00:33 -19.63347 -43.96449 2810 ft 10 kts 317°
2026-05-06 00:34 -19.63297 -43.96494 2808 ft 9 kts 318°
2026-05-06 00:34 -19.63260 -43.96471 2809 ft 7 kts 70°
2026-05-06 00:34 -19.63251 -43.96449 2807 ft 0 kts 64°